Location: Ostrava
(49.8330°N, 18.2830°E)
Time: 02:32:10
(UTC+02:00)

Explorer 7 - Visible Passes

Search period start: 22 April 2018 00:00
Search period end: 02 May 2018 00:00
Orbit: 485 x 682 km, 50.3° (Epoch: 21 April)

Date Brightness Start Highest point End Pass type
(mag) Time Alt. Az. Time Alt. Az. Time Alt. Az.
22 Apr 8.6 02:39:11 22° ESE 02:39:11 22° ESE 02:41:22 10° E visible
22 Apr 6.7 04:15:31 20° WSW 04:18:13 72° SSE 04:22:07 10° E visible
23 Apr 7.9 02:44:06 32° SE 02:44:06 32° SE 02:47:00 10° E visible
23 Apr 6.7 04:20:26 16° WSW 04:23:38 86° SSE 04:27:34 10° E visible
24 Apr 7.3 02:49:00 46° SE 02:49:00 46° SE 02:52:31 10° E visible
24 Apr 6.7 04:25:19 12° W 04:29:05 85° N 04:33:00 10° E visible
25 Apr 6.8 02:53:52 63° S 02:54:00 63° SSE 02:57:59 10° E visible
25 Apr 6.8 04:30:24 10° W 04:34:33 82° N 04:38:27 10° E visible
26 Apr 9.4 01:22:23 12° E 01:22:23 12° E 01:22:46 10° E visible
26 Apr 6.7 02:58:42 59° SW 02:59:24 78° SSE 03:03:25 10° E visible
26 Apr 6.8 04:35:52 10° W 04:40:00 85° N 04:43:55 10° E visible
27 Apr 9.0 01:27:13 17° E 01:27:13 17° E 01:28:20 10° E visible
27 Apr 6.7 03:03:32 43° W 03:04:49 90° SW 03:08:51 10° E visible
27 Apr 6.7 04:41:19 10° W 04:45:27 87° S 04:49:20 10° ESE visible
28 Apr 8.5 01:32:01 25° E 01:32:01 25° E 01:33:49 10° E visible
28 Apr 6.8 03:08:20 31° W 03:10:17 84° N 03:14:18 10° E visible
28 Apr 6.7 04:46:46 10° W 04:50:52 74° SSW 04:54:44 10° ESE visible
29 Apr 8.0 01:36:48 35° E 01:36:48 35° E 01:39:16 10° ENE visible
29 Apr 6.8 03:13:07 22° W 03:15:44 83° N 03:19:45 10° E visible
29 Apr 6.8 04:52:12 10° W 04:56:15 58° SSW 05:00:04 10° ESE visible
30 Apr 7.4 01:41:34 51° E 01:41:34 51° E 01:44:41 10° E visible
30 Apr 6.7 03:17:54 16° W 03:21:11 87° N 03:25:11 10° E visible
01 May 6.9 01:46:20 75° ENE 01:46:20 75° ENE 01:50:08 10° E visible
01 May 6.7 03:22:39 12° W 03:26:37 83° SSW 03:30:36 10° ESE visible
